Wind_Speed
14 14 13 13 13 13 12 13 12 12 12 12 12 12 12 12 11 11 11 11 11 11 11 11 12 12 12 13 14 15 16 16 16 16 17 17 18 18 18 18 19 19 19 18 18 18 18 19 19 19 19 19 19 20 19 19 19 19 20 20 20 20 20 20 20 20 20 20 19
15 15 14 13 13 13 13 12 12 13 13 13 13 12 12 12 12 12 12 12 12 12 11 11 12 12 12 13 14 15 15 16 16 16 17 17 18 18 18 18 18 18 18 18 18 18 18 18 18 18 19 19 19 19 19 19 18 18 19 20 19 19 19 19 20 20 20 20 20
16 15 15 14 14 14 13 13 13 13 14 14 13 13 13 12 12 12 12 12 12 12 12 12 12 13 13 13 14 14 15 15 16 16 16 17 17 18 18 18 18 18 18 18 18 18 18 18 18 18 18 18 18 18 18 18 18 18 18 19 19 18 18 18 19 19 19 19 19
16 16 15 15 15 15 14 14 14 14 14 14 14 13 13 13 13 12 12 13 13 13 13 13 12 12 13 13 14 14 15 15 15 15 16 16 17 17 17 18 18 18 18 18 18 18 18 18 18 18 18 18 18 17 17 17 17 17 18 18 18 17 17 17 17 17 17 18 18
16 16 16 16 16 16 15 15 14 14 14 14 13 13 13 13 13 13 13 13 13 13 14 13 13 12 12 13 14 14 15 15 15 15 15 16 16 17 17 17 18 18 18 18 19 19 18 18 17 17 17 17 17 17 17 17 16 17 17 17 16 16 16 16 16 16 16 17 17
16 16 16 16 16 16 16 15 15 14 14 13 13 14 14 13 13 13 13 13 13 13 14 14 13 13 13 13 13 14 14 15 15 15 16 16 16 16 17 17 18 18 18 18 18 19 18 18 17 17 17 17 17 17 17 17 16 16 16 16 16 16 16 16 16 16 16 16 17
15 16 16 16 16 16 16 15 15 14 14 14 14 15 15 14 14 14 14 14 13 13 13 13 14 13 13 13 13 14 14 15 15 16 16 16 16 16 16 17 17 18 18 18 18 18 18 17 17 16 17 17 16 17 17 17 16 16 16 16 16 16 16 16 16 16 16 17 17
15 16 16 16 16 16 16 16 15 15 14 14 15 15 15 15 15 15 14 14 13 13 13 13 13 14 14 14 14 14 14 14 15 15 16 16 16 16 16 16 17 17 18 18 18 18 17 17 17 16 16 16 16 16 17 17 17 17 17 16 16 16 16 16 17 17 17 17 18
15 15 16 16 16 16 16 16 16 15 15 15 15 15 15 16 15 15 15 14 14 13 13 13 13 14 14 15 14 14 14 14 15 15 15 16 16 16 16 16 16 17 17 17 18 18 18 17 17 17 16 16 16 17 17 18 18 18 18 17 17 16 16 17 17 17 17 17 18
15 15 15 15 16 16 16 16 16 16 16 15 15 15 15 15 15 15 15 14 14 13 13 13 13 14 14 15 15 15 15 15 15 15 15 16 16 16 16 16 16 16 16 17 17 17 18 17 17 17 17 17 17 17 17 18 19 19 19 18 17 17 17 17 17 17 17 18 19
14 14 14 15 15 15 15 15 15 16 16 16 16 16 15 15 15 15 15 14 14 14 14 14 14 14 14 14 15 15 15 15 15 15 15 16 16 17 17 17 17 17 17 17 16 16 17 17 17 18 18 18 18 17 17 18 19 19 20 19 19 18 18 18 18 17 18 18 19
14 14 14 14 14 14 14 15 15 15 16 16 16 16 16 15 15 15 15 15 15 15 15 15 15 15 15 15 15 15 15 15 15 15 16 16 16 17 17 17 17 17 17 17 17 16 16 17 17 18 18 18 18 17 17 17 18 19 20 20 20 19 19 19 18 18 18 19 19
14 14 14 13 14 14 14 15 15 15 15 16 16 16 15 15 15 15 15 16 16 15 15 15 15 16 16 16 16 15 15 15 16 16 16 16 16 17 17 17 17 18 18 18 17 17 17 17 18 18 19 19 18 18 17 17 18 19 20 21 21 20 20 20 19 19 19 20 20
14 14 14 14 14 14 14 14 14 14 15 15 15 15 15 15 15 15 15 16 16 16 15 15 15 15 16 16 17 16 16 16 16 16 16 17 17 17 17 17 18 18 18 17 18 18 18 18 18 18 19 19 19 19 18 18 18 18 19 20 21 21 21 20 20 19 19 20 21
14 14 14 14 14 14 14 14 14 14 15 15 15 15 14 14 14 15 15 15 16 16 15 15 15 15 16 17 17 17 17 17 16 17 17 17 17 17 18 18 18 18 18 18 18 18 18 19 19 19 19 19 19 19 19 19 18 18 19 19 20 21 21 21 20 19 20 21 22
13 14 14 14 14 14 14 14 14 14 14 14 14 14 14 14 14 14 15 15 15 15 16 16 16 16 16 17 17 18 17 17 17 18 18 18 18 18 18 18 19 18 18 18 18 18 19 19 19 19 19 19 19 19 19 19 19 19 19 20 20 21 21 21 21 21 21 22 23
13 13 14 14 14 15 15 15 14 14 14 14 14 14 14 14 14 14 14 15 15 15 16 16 16 16 16 16 17 17 17 18 18 18 18 19 19 19 19 19 19 19 19 18 18 18 19 19 19 19 19 19 19 19 19 19 19 19 20 21 21 22 22 22 22 23 23 24 24
13 13 13 14 14 15 15 15 15 15 14 14 14 14 14 14 14 14 14 15 15 16 16 16 17 17 17 17 17 17 17 17 18 18 19 19 19 19 19 19 19 19 19 18 19 19 19 19 19 19 19 19 19 19 19 19 19 20 21 21 22 22 22 23 24 25 26 26 26
13 13 13 14 14 15 15 15 15 15 15 15 14 14 14 14 15 15 15 15 16 16 17 17 17 17 17 17 17 17 17 17 18 19 19 19 19 19 19 19 19 19 19 19 19 19 19 19 19 19 19 19 19 19 19 19 19 20 21 21 22 22 23 23 24 25 26 27 27
13 13 13 14 14 14 15 15 16 16 16 16 15 15 15 16 16 16 16 16 17 17 17 17 18 18 18 18 18 18 18 18 18 19 19 19 19 20 20 19 19 19 19 19 19 19 19 19 19 19 19 18 19 19 19 19 20 20 21 21 22 22 23 23 23 24 25 26 27
12 13 13 13 13 14 14 15 15 15 15 16 16 16 16 16 16 17 17 17 17 17 17 18 18 19 19 19 19 19 19 19 19 19 19 19 19 20 19 19 19 18 18 18 18 18 18 19 18 18 19 19 19 20 20 19 20 20 21 21 21 22 23 23 23 23 24 25 26
10 11 12 14 14 14 14 14 14 14 15 15 16 16 16 16 17 17 17 17 17 18 18 19 19 19 19 19 19 19 19 19 19 19 19 19 19 19 19 18 18 18 18 18 18 18 18 19 19 19 20 21 21 21 21 20 20 20 20 20 21 22 23 24 24 24 24 25 26
9 11 13 14 16 16 16 16 16 16 16 15 15 16 16 16 17 17 17 17 17 18 18 19 19 19 19 19 19 19 19 19 19 19 19 19 19 19 18 18 17 17 18 17 18 19 19 20 20 21 22 23 23 22 21 20 19 19 19 20 20 21 22 24 24 25 25 26 27
7 8 9 11 12 13 14 15 16 16 16 16 16 16 16 16 16 16 16 17 17 17 18 18 18 18 18 19 19 19 19 19 20 20 20 20 19 19 18 18 17 17 17 17 18 19 21 21 22 23 23 23 22 21 20 19 18 19 19 20 20 21 22 24 25 25 26 27 27
4 4 5 6 7 8 9 10 11 12 13 14 15 15 15 15 16 16 16 16 16 17 17 17 17 17 17 17 18 18 19 19 20 20 20 20 20 19 18 17 17 16 16 17 19 21 22 23 23 22 22 21 20 19 18 17 18 18 19 20 21 21 22 23 25 26 26 27 27
2 3 3 4 5 6 6 7 8 9 9 10 11 12 13 13 14 15 15 16 16 16 16 17 17 17 16 16 17 17 18 18 19 19 19 19 19 18 18 17 16 15 16 17 20 22 23 24 23 23 22 21 19 17 17 17 18 19 20 21 22 22 22 23 24 25 26 27 27
1 2 3 4 4 5 6 7 8 8 9 9 9 10 10 11 12 12 13 13 14 15 15 16 16 15 15 15 15 16 17 17 17 18 18 18 18 17 17 16 15 15 16 18 20 21 22 23 23 23 22 20 18 17 17 17 18 19 21 21 22 23 23 23 24 25 26 27 27
2 2 2 3 3 4 5 6 7 7 8 9 9 10 10 11 11 11 11 11 12 12 13 13 13 13 13 13 14 15 16 16 16 16 16 16 16 16 16 15 15 14 15 17 19 20 21 22 22 22 21 21 20 19 19 19 19 20 21 22 22 23 23 24 25 25 26 27 27
4 3 3 3 3 4 4 5 6 6 7 8 9 9 10 10 10 10 10 11 11 10 10 10 10 10 10 11 12 13 13 13 13 13 13 14 14 14 14 14 14 14 15 17 19 20 21 21 21 21 20 20 20 20 20 20 20 21 21 21 22 23 23 24 25 25 26 26 27
7 6 5 5 5 4 4 4 5 5 6 6 7 7 8 8 8 8 9 9 9 8 8 8 8 8 8 9 9 9 9 9 10 10 11 11 12 12 12 12 12 12 14 16 18 19 20 20 19 19 19 19 19 19 20 20 21 21 21 21 22 22 23 23 24 25 25 26 26
9 8 8 7 7 6 5 4 4 3 4 4 4 4 4 4 4 4 5 5 5 6 6 6 6 6 6 6 7 7 7 7 7 7 8 9 9 10 10 10 10 11 12 15 17 18 18 18 18 17 17 17 17 18 19 20 20 21 21 21 22 22 23 23 24 24 25 25 25
10 9 9 9 8 8 7 6 6 5 5 5 4 4 4 4 3 3 3 2 3 3 3 3 3 3 3 4 4 4 5 5 5 5 6 7 7 8 8 9 9 9 11 14 15 16 16 16 16 16 16 16 16 17 18 19 20 20 20 20 21 21 22 22 22 23 24 25 25
10 10 10 10 10 9 9 8 8 7 7 7 7 8 8 7 7 7 7 7 7 6 6 5 5 4 3 3 3 3 3 3 4 4 5 6 6 7 7 7 7 8 10 12 13 14 14 14 14 14 14 14 15 16 17 18 19 19 19 19 20 20 20 21 21 22 23 23 24
10 10 10 10 10 10 10 10 9 9 9 10 10 11 11 10 10 10 10 10 10 9 8 8 7 6 6 5 5 4 4 3 3 4 5 5 5 6 6 6 5 7 9 11 12 12 12 12 12 13 13 13 13 14 16 17 18 18 18 19 19 19 19 19 20 20 21 22 22
10 10 10 10 10 11 11 11 11 11 12 12 13 13 13 13 13 13 12 12 11 10 10 10 10 9 8 8 7 6 5 5 5 5 5 5 5 5 5 5 6 8 9 11 11 11 11 11 11 12 12 12 12 13 14 16 16 17 17 17 17 18 18 19 19 20 20 20 20
10 9 9 10 10 11 11 11 12 12 13 14 14 14 15 15 15 14 14 12 11 10 10 11 10 10 9 9 8 8 7 7 6 6 6 6 6 6 6 6 7 8 9 10 9 9 10 10 10 10 10 10 10 11 13 14 15 15 15 16 16 17 18 18 19 19 19 19 19
9 9 9 9 10 10 11 11 12 12 13 13 14 14 14 14 15 15 14 12 10 10 10 10 10 10 10 9 8 8 7 7 7 7 7 7 7 7 7 7 7 8 9 8 8 8 8 8 8 8 8 8 8 10 11 13 14 14 15 15 16 17 17 18 18 18 18 18 18
10 9 9 9 9 10 10 11 11 11 11 12 12 12 12 13 14 14 14 13 11 10 11 11 11 11 10 9 9 8 7 7 7 7 8 8 8 8 8 8 8 9 9 9 8 8 8 7 7 7 6 6 6 8 10 12 13 14 14 14 15 16 16 16 17 17 18 18 18
9 9 9 9 9 9 10 10 10 10 10 10 11 11 11 11 12 13 13 13 12 12 12 12 12 11 10 9 9 9 9 9 9 10 10 10 10 9 9 9 9 9 9 8 8 8 7 7 6 6 5 4 4 6 9 11 12 12 12 12 13 13 14 15 15 16 16 17 17
9 9 9 9 9 9 10 10 10 10 9 9 10 10 10 10 10 11 11 12 12 12 12 12 11 11 10 10 10 10 11 11 11 11 11 10 9 8 8 8 9 8 8 7 7 7 6 6 5 4 4 3 5 7 8 10 11 11 11 11 11 12 12 14 15 15 15 15 16
9 9 10 10 9 9 9 10 10 9 9 9 9 9 9 9 9 9 9 10 10 10 11 10 10 9 9 9 10 11 11 11 11 10 9 8 8 7 7 7 8 8 7 7 6 6 5 5 4 3 3 3 5 7 8 9 9 10 10 10 11 11 12 13 14 15 15 15 15
Wind_Direction
206 204 203 203 203 204 206 208 209 208 208 208 207 207 207 208 209 210 210 210 212 214 216 217 217 217 217 216 214 216 220 224 224 223 224 225 227 230 232 233 233 232 231 231 231 231 231 232 232 233 234 236 237 237 237 237 237 237 237 237 237 238 237 237 236 236 234 233 234
207 205 204 204 204 206 208 209 209 209 210 210 210 210 210 210 212 213 214 214 215 217 218 219 221 220 218 217 216 216 219 222 224 224 225 226 228 230 232 233 234 234 232 231 230 230 230 230 230 231 233 236 237 237 237 237 236 236 237 236 237 238 238 237 238 238 237 236 235
207 207 206 205 205 206 207 208 209 210 210 212 212 212 212 213 215 216 217 218 219 220 221 222 223 223 221 220 218 218 219 221 223 225 226 227 229 230 231 232 234 235 235 233 231 230 230 230 230 231 233 235 236 237 238 238 236 236 236 236 236 237 237 237 238 238 238 238 236
208 207 207 207 208 208 209 210 211 211 211 212 213 214 215 216 217 219 220 222 222 223 224 224 225 225 223 223 221 221 222 223 224 224 226 228 230 231 231 232 233 235 236 235 233 232 231 230 230 231 233 235 236 236 237 237 236 236 236 237 236 236 236 238 239 238 238 238 237
209 208 208 209 210 210 211 212 212 211 211 212 213 213 215 217 218 220 222 223 224 225 226 226 227 228 227 224 223 223 225 226 225 226 227 229 231 232 233 233 234 235 237 237 236 235 233 231 231 232 234 236 236 237 237 237 236 236 236 237 236 235 236 238 238 238 238 238 238
209 209 210 211 212 212 213 215 215 214 213 213 213 213 215 216 218 220 222 224 226 227 228 228 229 230 230 228 227 227 227 228 228 228 229 231 232 233 233 234 235 236 237 237 238 237 234 230 231 233 235 236 238 238 238 237 236 235 235 236 235 235 236 237 238 238 238 238 237
212 211 212 213 213 214 215 216 216 216 215 215 216 216 217 218 220 221 223 226 228 229 230 230 230 231 231 230 230 230 229 230 230 231 232 233 233 234 234 235 236 236 237 237 238 237 235 231 231 233 236 238 239 240 239 236 235 235 234 235 235 236 236 236 237 237 237 237 236
215 215 214 215 215 216 216 217 217 217 217 217 219 220 221 221 223 224 226 228 230 231 231 231 231 231 231 232 232 232 232 232 232 233 234 234 235 236 236 236 236 236 237 237 237 236 234 232 232 233 235 237 239 240 240 237 235 234 234 234 235 236 236 236 237 237 237 237 236
217 217 216 216 217 218 218 218 218 219 219 221 222 223 224 225 226 228 230 231 233 233 233 233 233 232 233 234 234 235 235 235 235 235 236 236 237 237 237 237 236 236 236 236 236 236 234 232 233 234 235 236 238 240 241 239 236 234 234 235 236 236 236 237 237 237 237 237 237
217 217 217 218 219 219 220 220 221 222 223 225 227 228 228 228 229 230 232 234 235 235 235 235 235 234 235 235 236 236 237 237 237 238 238 238 239 238 238 238 238 238 237 236 236 235 234 233 234 234 236 237 238 240 241 240 238 236 235 236 236 236 237 237 237 237 237 238 239
218 217 218 218 219 220 221 222 224 225 226 229 230 231 231 231 231 232 233 234 236 236 236 236 236 236 237 238 238 238 238 239 239 240 240 240 240 240 240 240 239 239 238 237 236 235 234 234 234 235 236 238 239 240 240 239 238 237 237 237 237 238 238 239 238 238 238 239 240
221 221 220 220 220 220 221 223 225 227 228 230 232 233 234 233 233 233 233 234 236 237 238 238 237 238 239 239 240 240 240 240 241 241 241 242 242 242 242 241 241 241 240 239 237 236 235 235 235 236 236 238 239 239 239 238 238 238 238 239 239 239 239 240 239 239 239 240 241
224 224 224 223 222 222 222 224 226 229 230 231 233 234 234 235 234 234 234 235 236 238 239 239 238 239 240 241 241 241 242 242 241 242 243 243 243 243 243 243 243 243 242 241 239 237 236 236 236 237 238 239 239 240 239 238 238 238 239 240 240 240 240 241 241 240 240 241 242
225 226 226 225 225 224 224 226 228 230 232 233 234 234 235 235 235 234 234 235 236 238 238 239 239 239 240 241 242 243 243 243 243 244 244 245 245 245 245 244 244 244 243 242 240 238 237 238 238 239 240 241 241 241 241 240 239 239 240 241 241 241 242 243 242 241 240 242 244
226 227 227 227 226 226 227 228 230 233 234 234 235 235 235 236 235 234 234 235 236 237 238 239 239 239 240 242 243 244 244 244 245 245 246 246 246 246 245 246 245 244 243 242 241 240 239 239 240 241 241 242 242 243 242 242 241 240 240 241 242 243 244 244 243 241 240 242 244
229 229 228 228 228 228 229 229 232 234 235 235 235 235 235 236 235 235 234 235 236 237 237 238 238 239 240 241 243 244 244 245 245 246 246 246 246 246 246 246 246 245 244 243 242 242 241 241 242 242 243 243 244 244 244 243 243 242 242 242 243 244 245 245 244 242 242 243 244
232 231 231 230 230 230 231 232 234 236 236 237 236 236 236 236 236 235 234 234 235 237 237 237 238 239 240 240 241 242 243 244 245 245 245 245 246 246 246 246 246 246 245 244 243 243 242 243 243 244 244 245 245 245 245 244 244 243 243 244 245 246 246 247 246 244 244 245 246
235 235 234 233 233 233 234 234 236 238 239 240 240 239 239 238 238 238 237 236 236 237 239 239 240 240 240 241 241 241 242 243 244 244 245 246 247 247 248 248 248 247 246 245 244 244 244 244 244 245 245 245 246 246 246 245 244 244 244 245 246 247 247 247 248 247 247 247 248
239 238 237 237 237 237 237 238 239 241 243 244 244 244 243 242 241 241 241 240 239 240 241 242 242 242 242 242 242 242 242 243 244 245 247 247 248 249 249 250 250 249 248 247 246 246 246 246 246 245 245 246 246 247 247 246 245 246 246 246 247 247 247 248 248 249 249 249 249
243 243 242 241 241 241 242 242 243 244 245 246 247 247 246 246 245 245 244 244 243 243 243 244 245 245 244 244 244 244 244 245 246 247 248 249 250 250 251 251 251 250 249 248 248 248 248 247 247 246 246 246 246 247 247 247 247 247 247 247 247 247 247 247 247 248 249 250 250
248 248 248 247 247 247 246 247 247 248 248 249 249 249 249 248 248 247 247 247 247 247 246 246 246 246 246 246 246 246 246 246 247 248 249 250 251 251 252 252 252 251 250 249 249 248 248 248 248 248 247 247 247 247 247 248 248 248 248 248 248 248 248 247 247 247 248 249 249
249 248 247 247 247 248 249 251 251 251 252 252 251 251 251 250 250 249 249 249 249 249 248 248 248 248 248 248 247 247 248 248 248 249 250 251 252 253 253 253 253 252 251 250 249 249 249 250 250 249 249 249 249 249 249 249 249 249 249 249 249 249 250 249 249 248 249 249 250
246 247 247 247 247 248 249 250 251 251 252 253 253 253 253 252 252 252 251 251 250 250 249 249 249 249 249 249 249 249 249 249 250 250 250 252 253 254 254 254 253 252 251 250 250 250 251 252 252 252 252 251 251 251 251 251 250 250 250 250 250 250 251 251 251 251 251 251 251
247 248 249 249 250 250 250 251 252 252 253 253 253 253 253 253 253 253 252 251 251 250 250 250 250 250 250 250 249 250 250 250 250 251 251 252 253 254 255 255 254 253 252 251 251 252 254 255 255 256 255 254 254 253 252 251 250 251 251 252 251 252 252 253 253 253 253 252 253
257 255 254 254 253 253 253 253 254 254 255 256 256 255 254 254 253 253 252 251 250 250 250 250 250 251 251 250 250 250 249 249 250 251 252 253 253 254 255 255 255 254 254 254 255 257 259 260 259 259 258 257 255 254 253 252 252 252 252 253 253 252 252 253 254 254 254 254 254
283 275 271 266 263 262 260 258 257 258 258 260 260 260 260 259 257 256 255 254 252 251 251 251 251 251 251 250 250 250 249 249 249 250 251 253 254 255 255 255 255 255 255 256 259 262 264 265 264 263 261 259 257 255 255 255 254 253 253 254 254 253 252 252 253 255 256 256 255
324 296 283 277 274 271 269 265 264 263 263 264 265 265 265 265 264 263 262 261 260 259 256 254 252 251 251 250 250 249 249 249 249 249 251 253 254 255 256 255 255 255 256 259 263 265 267 268 268 267 264 261 258 256 256 257 257 256 255 255 255 254 253 253 254 256 257 257 256
5 336 315 302 294 286 281 277 275 273 272 270 270 269 268 269 269 269 269 269 269 268 264 260 257 255 252 251 250 249 249 249 250 251 252 253 254 255 256 255 255 256 257 260 264 267 270 271 272 271 268 265 261 259 259 259 259 259 259 258 257 256 255 255 256 257 258 258 257
32 20 7 352 335 319 309 301 294 287 282 278 276 275 274 274 274 273 273 273 273 271 268 264 261 258 254 253 253 253 253 253 253 253 254 255 256 256 256 256 257 259 260 263 266 270 273 275 276 276 274 270 265 262 261 260 260 260 260 259 258 257 257 257 258 258 258 258 258
45 41 36 28 15 0 346 331 316 304 296 292 289 287 285 284 282 280 279 277 276 274 271 268 265 261 258 258 259 261 261 260 259 258 258 259 260 260 261 262 263 264 266 267 271 274 277 280 281 281 279 276 271 266 263 261 261 260 259 259 259 259 258 258 257 257 257 257 257
44 43 41 37 32 26 18 8 358 348 338 330 323 315 310 307 304 298 293 290 288 287 285 283 281 276 273 272 271 271 271 270 268 266 265 266 268 269 271 271 272 273 273 274 277 281 283 285 286 286 284 281 276 270 266 264 262 260 259 260 261 261 260 259 258 257 257 257 257
40 40 39 39 38 38 38 38 39 39 36 33 34 35 35 32 27 21 15 10 7 3 359 354 342 328 314 307 297 290 286 284 282 279 278 278 280 281 282 283 283 281 281 283 287 290 292 292 292 291 290 287 282 276 270 266 263 261 261 261 262 262 261 260 259 259 259 259 259
38 38 39 40 41 43 46 50 51 50 49 49 51 54 54 53 53 53 53 54 53 49 44 40 34 26 16 7 355 340 326 316 306 300 295 292 292 293 293 294 294 292 292 296 300 301 301 300 299 298 297 295 289 282 275 268 264 262 261 261 261 262 262 261 261 262 262 262 261
37 37 39 41 43 46 49 53 54 54 54 55 56 56 56 55 54 54 54 55 54 53 51 50 48 44 41 36 31 25 15 3 348 334 325 319 314 311 310 311 314 310 309 314 315 313 310 308 307 307 307 303 295 285 275 268 263 260 260 261 262 263 264 264 264 265 265 265 264
34 35 37 40 42 46 50 53 56 57 58 57 56 55 55 54 54 54 54 54 53 52 52 51 50 48 45 42 40 38 33 27 20 10 2 354 347 341 336 333 330 328 328 329 327 323 320 318 317 317 315 309 297 284 273 265 260 258 258 260 261 263 264 265 266 267 267 268 267
31 33 35 38 41 44 48 52 55 58 58 57 55 54 53 53 53 54 54 53 52 52 52 53 52 51 50 49 46 43 39 33 28 22 15 11 7 2 356 352 344 341 340 338 334 331 328 327 328 327 324 316 300 284 271 263 258 257 257 258 260 262 263 265 267 268 270 271 271
32 32 32 36 39 43 46 51 54 56 56 55 54 52 52 52 53 54 54 53 52 52 53 54 54 54 53 53 51 47 42 37 35 30 24 20 18 17 14 9 358 352 350 346 342 338 336 336 336 337 334 324 305 286 273 264 259 257 257 258 260 262 264 267 270 271 273 274 274
33 33 34 36 39 42 44 48 52 53 54 54 53 53 53 54 54 54 55 55 54 54 55 56 56 56 55 54 52 49 46 44 44 41 36 31 28 28 28 24 14 6 1 356 351 346 344 342 342 343 341 332 307 285 272 265 260 258 258 259 261 264 267 271 274 276 278 278 278
34 36 37 38 40 42 44 47 49 51 52 53 54 54 54 55 55 56 58 59 59 59 61 61 61 59 57 54 53 51 49 48 48 46 43 40 36 34 33 32 25 18 10 3 357 353 350 348 345 343 339 328 298 277 269 264 260 258 258 260 263 267 271 275 278 279 281 282 281
36 38 40 42 43 44 46 47 49 50 51 52 53 54 54 55 57 60 63 65 67 68 68 67 65 63 60 58 57 56 55 53 51 49 47 45 43 41 40 38 34 27 19 11 4 359 356 353 349 344 335 313 284 269 264 262 261 259 260 263 267 271 275 278 281 282 283 284 285
39 42 45 47 48 48 48 49 51 52 53 53 54 55 57 59 61 64 67 71 73 74 74 74 72 70 69 67 65 64 63 61 59 56 54 53 52 51 49 48 43 36 27 18 12 8 4 359 355 354 341 307 280 269 265 265 264 262 263 266 271 274 277 281 284 285 287 288 289
Height
757 758 759 759 760 761 762 762 763 764 764 765 766 766 767 768 768 769 769 769 770 770 771 771 771 771 772 772 773 773 773 774 774 774 775 775 775 776 776 777 777 778 779 779 780 780 781 781 781 781 781 781 781 782 782 782 783 783 783 783 783 783 784 784 784 784 784 784 785
756 756 757 758 759 760 761 761 762 763 763 764 764 765 766 766 767 767 768 768 769 769 769 770 770 770 771 771 771 772 772 772 773 773 773 774 774 774 775 775 776 776 777 777 778 779 779 779 779 779 779 779 779 780 780 780 780 781 781 781 781 781 781 781 781 782 782 783 783
754 755 756 757 758 759 759 760 761 761 762 763 764 764 765 765 766 766 767 767 767 768 768 768 769 769 769 770 770 770 771 771 771 772 772 772 773 773 774 774 774 775 775 776 776 777 777 777 778 778 778 777 778 778 778 778 779 779 779 779 779 779 779 779 779 780 780 781 781
754 754 755 756 757 757 758 759 759 760 761 762 762 763 764 764 764 765 765 766 766 766 767 767 767 768 768 769 769 769 769 770 770 770 771 771 771 772 772 772 773 773 774 774 774 775 775 775 776 776 776 776 776 776 776 776 777 777 777 777 777 777 777 777 778 778 778 779 779
752 753 754 754 755 756 757 757 758 759 760 760 761 762 762 763 763 764 764 764 765 765 765 766 766 767 767 767 768 768 768 769 769 769 769 769 770 770 770 771 771 772 772 772 773 773 774 774 774 774 774 774 774 774 774 774 775 775 775 775 775 775 775 776 776 776 776 777 777
751 752 753 753 754 755 756 756 757 758 759 759 760 760 761 761 762 762 763 763 763 764 764 764 765 765 766 766 766 767 767 767 767 768 768 768 769 769 769 769 770 770 770 771 771 771 772 773 773 772 772 772 772 772 772 773 773 774 773 773 774 774 774 774 774 774 774 775 775
750 751 752 752 753 754 754 755 756 757 758 758 759 759 759 760 760 761 761 761 762 762 763 763 764 764 764 765 765 765 765 766 766 766 766 767 767 767 768 768 768 769 769 769 769 770 770 771 771 770 770 770 770 770 771 771 771 772 772 772 772 772 772 772 772 772 773 773 773
749 750 751 751 752 753 753 754 755 756 756 757 757 757 758 758 759 759 760 760 761 761 761 762 762 762 763 763 764 764 764 764 764 765 765 765 765 766 766 767 767 767 768 768 768 768 769 769 769 769 769 769 769 769 769 769 769 770 770 770 770 770 770 770 770 770 770 770 770
749 749 750 750 751 752 752 753 754 754 755 755 756 756 757 757 758 758 759 759 759 760 760 760 760 761 761 762 762 762 763 763 763 763 764 764 764 764 765 765 765 766 766 766 766 767 767 767 767 767 767 767 767 767 767 767 768 768 768 768 768 768 768 768 768 768 768 768 769
747 748 749 749 750 750 751 752 753 753 754 754 754 755 755 756 756 757 757 758 758 758 759 759 759 759 760 760 760 761 761 761 762 762 762 762 763 763 763 764 764 764 764 765 765 765 765 765 765 765 765 765 765 765 765 765 765 765 766 766 766 766 766 766 766 766 766 766 766
746 747 748 748 749 749 750 751 752 752 753 753 753 754 754 755 755 755 756 756 757 757 757 758 758 758 759 759 759 759 759 760 760 760 760 761 761 761 762 762 762 762 763 763 763 764 764 764 763 763 763 763 763 764 764 764 764 764 764 764 764 764 764 764 764 765 765 764 765
745 746 747 747 748 749 749 750 750 751 751 752 752 753 753 754 754 754 754 755 755 755 756 756 756 757 757 757 758 758 758 758 759 759 759 759 759 759 760 760 760 761 761 761 761 762 762 761 761 761 761 762 762 762 762 762 762 762 762 762 762 762 763 763 763 763 763 763 763
745 745 746 746 747 748 748 749 749 750 750 750 751 751 752 752 752 753 753 754 754 754 754 755 755 755 755 756 756 756 757 757 757 757 757 758 758 758 758 758 759 759 759 759 760 760 760 759 759 759 760 760 760 760 760 760 760 760 760 760 760 760 761 761 761 761 761 761 761
744 744 745 745 746 747 747 748 748 748 749 749 749 750 750 750 751 751 752 752 752 753 753 754 754 754 754 754 754 755 755 755 755 756 756 756 756 756 756 756 757 757 757 757 758 758 758 758 758 758 758 758 758 758 759 759 759 759 758 758 759 759 759 759 759 760 760 759 759
743 743 744 744 745 745 746 746 747 747 747 748 748 748 749 749 749 750 750 750 751 751 752 752 752 752 752 753 753 753 754 754 754 754 754 754 754 754 754 754 755 755 755 755 756 756 756 756 756 756 756 756 756 757 757 757 757 757 757 757 757 757 757 757 758 758 758 758 758
741 742 743 743 744 744 744 745 745 745 746 746 746 747 747 748 748 748 749 749 749 750 750 750 751 751 751 751 751 752 752 752 752 752 752 752 752 752 752 753 753 753 753 754 754 754 754 754 754 754 754 754 755 755 755 755 755 755 755 755 755 755 755 755 756 756 756 756 756
740 741 741 742 742 743 743 744 744 744 744 744 745 745 746 746 746 747 747 747 748 748 749 749 749 749 749 750 750 750 750 750 750 750 750 750 750 750 750 751 751 751 751 752 752 752 752 752 753 753 753 753 753 753 753 754 754 753 753 753 753 754 754 754 754 754 754 754 754
739 740 740 741 741 741 742 742 743 743 743 743 744 744 744 745 745 745 745 746 746 747 747 747 748 748 748 748 748 749 749 749 749 749 749 749 749 749 749 749 749 749 750 750 750 750 750 751 751 751 751 751 751 751 751 752 752 751 751 751 751 752 752 752 752 752 752 752 752
738 739 739 739 740 740 741 741 741 742 742 742 743 743 743 743 744 744 744 744 745 745 745 746 746 746 746 747 747 747 747 747 747 747 747 747 747 747 747 747 748 748 748 748 749 749 749 749 749 749 749 749 749 749 750 750 750 749 749 749 749 749 750 750 750 750 750 750 750
737 738 738 738 739 739 739 740 740 740 741 741 741 741 742 742 742 743 743 743 743 744 744 744 744 744 745 745 745 745 745 745 745 745 745 745 745 745 746 746 746 746 747 747 747 747 747 747 748 748 748 748 748 748 748 748 748 748 748 748 748 748 748 748 748 748 748 748 748
736 737 737 737 738 738 738 739 739 739 739 740 740 740 740 741 741 741 741 742 742 742 743 743 743 743 743 743 744 744 744 744 744 744 744 744 744 744 744 744 744 745 745 745 745 745 745 746 746 746 746 746 746 746 746 746 746 746 746 746 746 746 746 746 746 746 746 746 746
735 736 736 736 736 737 737 738 738 738 738 739 739 739 739 739 739 740 740 740 741 741 741 741 741 741 741 742 742 742 742 742 742 742 742 742 742 742 742 743 743 743 743 743 744 744 744 744 744 744 745 745 745 745 745 745 745 745 745 744 744 744 744 744 745 745 745 745 745
734 734 734 735 735 735 736 736 736 737 737 737 738 738 738 738 738 739 739 739 739 739 739 739 739 739 740 740 740 740 740 740 740 740 740 741 741 741 741 741 741 741 741 741 742 742 742 742 743 743 743 743 743 743 744 744 744 744 744 743 743 743 743 743 743 743 744 744 744
734 734 734 734 734 735 735 735 735 735 736 736 736 736 737 737 737 737 737 737 738 738 738 738 738 738 738 739 739 739 739 739 739 739 739 739 739 739 739 740 740 740 739 740 740 740 740 741 741 741 741 741 742 742 742 743 743 742 742 742 742 742 742 742 742 742 742 742 742
734 734 734 734 734 734 734 734 734 735 735 735 735 735 735 735 735 735 736 736 736 736 736 736 736 737 737 737 737 737 737 737 737 737 737 737 737 738 738 738 738 738 738 738 738 738 739 739 739 739 740 740 740 741 741 741 741 741 741 741 740 740 740 740 740 740 740 740 740
734 734 734 734 734 734 734 734 734 734 734 734 734 734 734 734 734 734 734 734 734 734 734 735 735 735 735 735 735 735 735 735 735 735 735 736 736 736 737 737 737 737 737 736 736 736 737 737 738 738 739 739 739 740 740 739 739 739 739 739 739 739 739 739 739 739 739 739 739
734 734 734 734 734 734 734 734 734 734 733 733 733 733 733 733 733 733 733 733 733 733 733 733 733 733 734 734 734 734 734 734 734 734 734 734 735 735 735 735 736 735 735 735 735 735 735 736 736 737 737 738 738 739 739 738 738 738 738 738 738 738 738 737 737 737 737 737 737
734 734 734 734 734 733 733 733 733 733 733 733 733 733 732 732 732 732 732 732 732 732 732 732 732 732 732 732 732 732 732 733 733 733 733 733 734 734 734 734 734 734 734 734 734 734 734 735 735 736 736 737 737 737 737 737 737 737 737 736 736 736 736 736 736 736 736 736 736
734 734 734 733 733 733 733 733 733 733 732 732 732 732 732 732 731 731 731 731 731 731 731 731 731 731 731 731 731 731 731 732 732 732 732 733 733 733 733 733 733 734 734 734 733 734 734 734 734 734 735 735 735 736 735 735 735 735 735 735 735 735 735 735 735 735 735 735 735
734 734 734 733 733 733 733 732 732 732 732 731 731 731 731 731 731 731 731 730 730 730 730 730 730 730 730 730 730 731 731 731 731 732 732 732 732 732 732 733 733 733 733 733 733 733 733 733 733 733 734 734 734 734 734 734 734 734 734 734 734 734 734 734 734 734 734 734 734
734 734 734 734 733 733 733 732 732 732 731 731 731 731 731 730 730 730 730 730 730 729 729 729 729 729 729 729 730 730 730 730 731 731 731 731 732 732 732 732 732 732 732 732 732 732 732 732 732 732 733 733 733 733 733 733 733 733 733 733 733 733 733 733 733 733 733 733 733
735 734 734 734 734 733 733 732 732 732 732 731 731 731 730 730 730 730 729 729 729 729 729 729 729 729 729 729 729 729 730 730 730 730 731 731 731 731 731 731 732 731 731 731 731 731 731 731 731 731 732 732 732 732 732 732 732 732 732 732 732 732 733 733 733 732 732 732 733
735 735 734 734 734 733 733 733 732 732 732 732 731 731 731 730 730 730 729 729 729 729 729 729 729 729 729 729 729 729 729 730 730 730 730 730 730 730 731 731 731 731 730 730 730 730 730 730 731 731 731 731 731 732 732 732 732 732 732 732 732 732 732 732 732 732 732 732 732
736 735 735 734 734 734 733 733 733 732 732 732 731 731 731 730 730 730 729 729 729 729 729 729 729 729 729 729 729 729 729 729 729 730 730 730 730 730 730 730 730 730 730 730 730 730 730 730 730 730 730 731 731 731 731 731 731 731 731 731 731 731 731 731 731 731 731 732 732
736 736 735 735 734 734 734 733 733 733 732 732 732 731 731 730 730 730 729 729 729 729 729 729 729 729 729 729 729 729 729 729 729 729 729 729 729 729 729 730 730 729 729 729 729 729 729 729 729 730 730 730 730 731 731 731 731 731 731 731 731 731 731 731 731 731 731 731 731
737 736 736 735 735 734 734 734 733 733 733 732 732 732 731 731 730 730 730 729 729 729 729 729 729 729 729 729 729 729 729 729 729 729 729 729 729 729 729 729 729 729 729 729 729 729 729 729 729 729 729 730 730 730 730 730 730 730 730 730 730 730 730 730 730 730 730 730 731
737 737 736 736 735 735 735 734 734 733 733 733 732 732 732 731 731 730 730 730 730 730 729 729 729 729 729 729 729 729 729 729 729 729 729 729 729 729 729 729 729 729 729 729 729 729 729 729 729 729 729 729 729 730 730 730 730 729 729 729 729 729 729 729 729 729 729 729 730
738 737 737 737 736 736 735 735 734 734 734 733 733 733 732 732 731 731 730 730 730 730 730 730 729 729 729 729 729 729 729 729 729 729 729 729 729 729 729 729 729 728 728 729 728 728 728 728 728 728 728 728 729 729 729 729 729 729 728 728 728 728 728 728 728 728 728 729 729
739 738 738 737 737 736 736 735 735 734 734 734 734 733 733 732 732 731 731 731 731 730 730 730 730 730 730 729 729 729 729 729 729 729 729 729 729 729 729 728 728 728 728 728 728 728 728 728 727 727 727 727 728 728 728 728 728 728 728 727 727 727 727 727 728 728 728 728 728
739 739 738 738 737 737 737 736 736 735 735 734 734 734 733 733 733 732 732 731 731 731 730 730 730 730 730 730 730 730 729 729 729 729 729 729 729 729 729 728 728 728 728 728 728 727 727 727 727 727 727 727 727 727 727 728 728 728 728 728 728 727 727 727 727 728 728 728 728
739 739 739 738 738 738 737 737 737 736 736 735 735 734 734 734 733 733 732 732 731 731 731 731 730 730 730 730 730 730 730 730 729 729 729 729 729 729 729 728 728 728 728 728 727 727 727 726 726 726 726 727 727 727 727 727 727 728 728 728 728 728 728 728 728 728 728 728 728